TimeCST,TemperatureF,Dew PointF,Humidity,Sea Level PressureIn,VisibilityMPH,Wind Direction,Wind SpeedMPH,Gust SpeedMPH,PrecipitationIn,Events,Conditions,WindDirDegrees,DateUTC
12:15 AM,16.2,13.1,88,30.29,7.0,Calm,Calm,-,N/A,,Clear,0,2012-12-30 06:15:00
7:35 AM,20.7,17.4,87,30.36,7.0,Calm,Calm,-,N/A,,Clear,0,2012-12-30 13:35:00
7:55 AM,21.4,18.1,87,30.37,7.0,SW,3.5,-,N/A,,Clear,220,2012-12-30 13:55:00
8:15 AM,23.0,19.0,85,30.37,7.0,SW,3.5,-,N/A,,Clear,220,2012-12-30 14:15:00
8:35 AM,24.6,19.8,82,30.37,7.0,SW,3.5,-,N/A,,Clear,220,2012-12-30 14:35:00
8:55 AM,26.1,20.3,79,30.37,7.0,Calm,Calm,-,N/A,,Clear,0,2012-12-30 14:55:00
9:15 AM,27.3,20.8,77,30.37,7.0,SW,4.6,-,N/A,,Clear,220,2012-12-30 15:15:00
9:35 AM,28.8,21.0,73,30.37,10.0,SSW,3.5,-,N/A,,Clear,210,2012-12-30 15:35:00
9:55 AM,30.0,21.6,71,30.38,10.0,Calm,Calm,-,N/A,,Clear,0,2012-12-30 15:55:00
10:15 AM,30.9,22.1,70,30.38,10.0,South,4.6,-,N/A,,Clear,190,2012-12-30 16:15:00
10:35 AM,32.0,23.7,71,30.37,10.0,South,5.8,-,N/A,,Clear,190,2012-12-30 16:35:00
10:55 AM,33.3,24.4,70,30.37,10.0,South,5.8,-,N/A,,Clear,190,2012-12-30 16:55:00
11:15 AM,34.3,24.6,68,30.36,10.0,SSW,4.6,-,N/A,,Clear,200,2012-12-30 17:15:00
11:35 AM,36.0,25.5,66,30.35,10.0,SW,5.8,-,N/A,,Clear,220,2012-12-30 17:35:00
11:55 AM,37.8,26.4,64,30.34,10.0,SSW,6.9,-,N/A,,Clear,210,2012-12-30 17:55:00
12:15 PM,38.8,26.8,62,30.33,10.0,SSW,5.8,-,N/A,,Clear,200,2012-12-30 18:15:00
12:35 PM,41.0,26.4,56,30.31,10.0,WSW,5.8,-,N/A,,Clear,240,2012-12-30 18:35:00
12:55 PM,41.4,27.0,57,30.30,10.0,SW,6.9,-,N/A,,Clear,220,2012-12-30 18:55:00
1:15 PM,41.7,27.1,56,30.29,10.0,SW,3.5,-,N/A,,Clear,230,2012-12-30 19:15:00
1:35 PM,41.9,27.1,56,30.28,10.0,SSW,9.2,-,N/A,,Clear,210,2012-12-30 19:35:00
1:55 PM,41.0,27.1,58,30.27,10.0,SSW,8.1,-,N/A,,Clear,210,2012-12-30 19:55:00
2:15 PM,40.6,27.7,60,30.27,10.0,SW,4.6,-,N/A,,Clear,220,2012-12-30 20:15:00
2:35 PM,41.4,27.5,58,30.27,10.0,SSW,8.1,-,N/A,,Clear,200,2012-12-30 20:35:00
2:55 PM,41.0,28.0,60,30.27,10.0,SSW,5.8,-,N/A,,Clear,200,2012-12-30 20:55:00
3:15 PM,40.6,28.6,62,30.27,10.0,South,8.1,-,N/A,,Clear,190,2012-12-30 21:15:00
3:35 PM,39.6,28.8,65,30.27,10.0,South,5.8,-,N/A,,Clear,190,2012-12-30 21:35:00
3:55 PM,39.2,28.4,65,30.27,10.0,South,9.2,-,N/A,,Clear,190,2012-12-30 21:55:00
4:15 PM,38.5,28.4,67,30.27,10.0,South,8.1,-,N/A,,Clear,190,2012-12-30 22:15:00
4:35 PM,37.0,29.3,74,30.27,10.0,South,8.1,-,N/A,,Clear,170,2012-12-30 22:35:00
4:55 PM,35.6,29.8,80,30.26,10.0,South,11.5,-,N/A,,Clear,180,2012-12-30 22:55:00
5:15 PM,34.7,29.3,81,30.26,10.0,South,12.7,-,N/A,,Clear,180,2012-12-30 23:15:00
5:55 PM,33.1,27.3,79,30.26,10.0,South,12.7,-,N/A,,Clear,180,2012-12-30 23:55:00
6:15 PM,32.2,27.3,82,30.26,10.0,South,12.7,-,N/A,,Clear,180,2012-12-31 00:15:00
6:35 PM,32.0,26.6,80,30.25,10.0,South,11.5,-,N/A,,Clear,170,2012-12-31 00:35:00
6:55 PM,32.0,26.6,80,30.23,10.0,South,13.8,-,N/A,,Clear,180,2012-12-31 00:55:00
7:15 PM,32.0,26.4,80,30.23,10.0,South,12.7,-,N/A,,Clear,190,2012-12-31 01:15:00
7:35 PM,32.2,26.2,79,30.23,10.0,South,15.0,-,N/A,,Clear,180,2012-12-31 01:35:00
7:55 PM,32.4,26.4,79,30.22,10.0,South,15.0,20.7,N/A,,Clear,190,2012-12-31 01:55:00
8:15 PM,32.4,26.2,78,30.21,10.0,South,12.7,-,N/A,,Clear,190,2012-12-31 02:15:00
8:35 PM,32.5,26.4,78,30.21,10.0,South,12.7,-,N/A,,Clear,190,2012-12-31 02:35:00
8:55 PM,32.4,26.6,79,30.21,10.0,South,12.7,16.1,N/A,,Clear,190,2012-12-31 02:55:00
9:15 PM,32.5,26.8,79,30.20,10.0,South,12.7,17.3,N/A,,Clear,180,2012-12-31 03:15:00
9:35 PM,33.8,26.6,75,30.19,10.0,South,13.8,19.6,N/A,,Clear,190,2012-12-31 03:35:00
9:55 PM,33.1,26.8,78,30.18,10.0,South,15.0,20.7,N/A,,Clear,190,2012-12-31 03:55:00
10:15 PM,33.1,27.1,79,30.18,10.0,SSW,9.2,17.3,N/A,,Clear,200,2012-12-31 04:15:00
10:35 PM,33.1,27.3,79,30.16,10.0,SSW,11.5,17.3,N/A,,Clear,200,2012-12-31 04:35:00
10:55 PM,33.1,27.5,80,30.18,10.0,SSW,8.1,-,N/A,,Clear,200,2012-12-31 04:55:00
11:15 PM,33.1,27.5,80,30.17,10.0,SSW,10.4,16.1,N/A,,Clear,200,2012-12-31 05:15:00
11:35 PM,32.9,27.5,81,30.15,10.0,South,10.4,17.3,N/A,,Clear,190,2012-12-31 05:35:00
11:55 PM,32.9,27.5,81,30.15,10.0,South,11.5,17.3,N/A,,Clear,190,2012-12-31 05:55:00